Location: Unspecified
(0.0000°N, 0.0000°E)
Time: 18:23:06
(UTC+00:00)

Amateur Radio Satellites - All Passes

Search period start: 22 June 2017 17:53
Search period end: 23 June 2017 17:53
Location: Unspecified, 0.0000°N, 0.0000°E

Satellite Date Start Highest point End Downlink Frequencies (MHz)
Time Altitude Azimuth
RS-15 22 Jun 18:04:29 18:12:44 22° 111° (ESE) 18:21:10 29.354- 29.394
CUTE 1.7 + AOD 2 22 Jun 18:09:00 18:11:15 14° 79° (ENE) 18:13:29 437.475
NUDT-PHONESAT 22 Jun 18:24:51 18:28:13 31° 259° (W) 18:31:34 437.300
XW-2F 22 Jun 18:29:12 18:32:08 21° 258° (WSW) 18:35:04 145.980 - 146.000
CUTE-I 22 Jun 18:29:48 18:34:45 41° 257° (WSW) 18:39:42 437.470
XW-2D 22 Jun 18:30:47 18:33:29 18° 259° (WSW) 18:36:11 145.860 - 145.880
STRAND 1 22 Jun 18:31:30 18:36:01 32° 103° (ESE) 18:40:33 437.568
LilacSat-2 22 Jun 18:34:47 18:37:12 16° 259° (WSW) 18:39:36 437.200
XW-2A 22 Jun 18:39:17 18:42:02 23° 79° (ENE) 18:44:46 145.665 - 145.685
XW-2B 22 Jun 18:40:15 18:42:21 14° 258° (WSW) 18:44:27 145.730 - 145.750
ISS 22 Jun 18:57:00 19:00:03 36° 235° (SW) 19:03:06 437.550
AO-85 22 Jun 19:00:05 19:04:35 50° 112° (ESE) 19:08:45 145.980
AAUSAT CUBESAT 2 22 Jun 19:00:29 19:02:59 16° 79° (ENE) 19:05:29 437.432
SRMSAT 22 Jun 19:15:54 19:16:29 10° 5° (N) 19:17:05 437.500
CUBEBUG 2 22 Jun 19:16:11 19:20:25 55° 78° (ENE) 19:24:45 437.445
HO-68 22 Jun 19:22:29 19:29:38 68° 256° (WSW) 19:36:45 435.675
JUGNU 22 Jun 19:24:17 19:29:20 28° 18° (NNE) 19:34:22 437.505
AO-73 22 Jun 19:29:10 19:32:04 17° 78° (ENE) 19:34:59 145.935
SEEDS 22 Jun 19:32:13 19:36:23 58° 258° (WSW) 19:40:32 437.485
BEESAT 3 22 Jun 19:33:19 19:37:07 59° 111° (ESE) 19:40:57 437.485
CUTE 1.7 + AOD 2 22 Jun 19:43:25 19:46:48 23° 258° (WSW) 19:50:10 437.475
UWE-3 22 Jun 19:57:23 20:01:43 74° 258° (WSW) 20:06:11 435.000/436.395/437.385
Oscar 11 22 Jun 19:59:50 20:03:46 33° 79° (ENE) 20:07:41 .
YUBILEINY 22 Jun 20:00:05 20:04:28 15° 93° (E) 20:08:51 435.215
ZACube-1 22 Jun 20:00:32 20:04:50 57° 78° (ENE) 20:09:13 437.345
O/OREOS (USA 219) 22 Jun 20:09:35 20:13:48 36° 105° (ESE) 20:17:58 437.305
STRAND 1 22 Jun 20:12:04 20:14:55 15° 283° (WNW) 20:17:46 437.568
RS-15 22 Jun 20:13:16 20:24:42 64° 291° (WNW) 20:36:42 29.354- 29.394
NO-84 22 Jun 20:20:45 20:23:55 37° 303° (WNW) 20:27:21 435.350 FM
BEESAT 2 22 Jun 20:23:57 20:27:49 81° 112° (ESE) 20:31:43 435.950
AAUSAT CUBESAT 2 22 Jun 20:35:12 20:38:10 19° 258° (WSW) 20:41:08 437.432
UNISAT 6 22 Jun 20:54:28 20:57:44 20° 102° (ESE) 21:00:57 437.425
DELFI C3 22 Jun 20:58:13 21:01:56 40° 79° (E) 21:05:38 145.870
SRMSAT 22 Jun 21:02:47 21:06:37 17° 14° (NNE) 21:10:26 437.500
AO-73 22 Jun 21:04:47 21:08:01 20° 259° (W) 21:11:18 145.935
PRISM 22 Jun 21:08:56 21:12:37 32° 102° (ESE) 21:16:19 437.425
M-CUBED/EXP-1 PRIME 22 Jun 21:12:05 21:16:07 68° 285° (WNW) 21:20:31 437.505
JUGNU 22 Jun 21:12:35 21:18:30 76° 22° (NNE) 21:24:23 437.505
EO-88 22 Jun 21:15:12 21:18:42 43° 79° (E) 21:22:12 145.990 - 145.960
FO-29 22 Jun 21:21:38 21:29:25 74° 103° (ESE) 21:36:38 435.910
TIGRISAT 22 Jun 21:48:38 21:53:11 77° 281° (W) 21:57:37 435.000
YUBILEINY 22 Jun 21:52:15 22:00:52 63° 273° (W) 22:09:30 435.215
UNISAT 6 22 Jun 22:31:02 22:34:10 18° 282° (WNW) 22:37:15 437.425
QB50P2 22 Jun 22:35:52 22:38:18 15° 102° (ESE) 22:40:43 145.880/145.840
PCSat 22 Jun 22:36:20 22:41:37 55° 71° (ENE) 22:46:52 145.827
SRMSAT 22 Jun 22:50:39 22:56:10 40° 20° (NNE) 23:01:43 437.500
EO-79 22 Jun 23:00:18 23:04:02 30° 102° (ESE) 23:07:47 145.935-145.965
JUGNU 22 Jun 23:02:06 23:07:34 39° 200° (SSW) 23:13:00 437.505
FO-29 22 Jun 23:10:53 23:13:47 12° 286° (WNW) 23:16:39 435.910
DUCHIFAT 1 22 Jun 23:18:13 23:22:12 42° 102° (ESE) 23:26:11 145.980
AIST 2D 22 Jun 23:20:46 23:23:56 34° 281° (W) 23:27:07 435.315
ESTCUBE 1 22 Jun 23:22:27 23:26:55 59° 258° (WSW) 23:31:21 437.505/2401.250
LO-87 22 Jun 23:23:32 23:26:07 19° 259° (WSW) 23:28:42 145.935 - 145.965
NANOSAT C BR1 22 Jun 23:24:38 23:28:48 63° 101° (E) 23:32:59 145.865
VELOX 1 22 Jun 23:39:23 23:43:22 34° 78° (ENE) 23:47:19 145.980
SO-50 22 Jun 23:58:57 00:01:08 13° 68° (ENE) 00:03:19 436.795
POLYITAN 1 22 Jun 23:59:24 00:03:13 33° 282° (WNW) 00:07:02 437.675
DX 1 23 Jun 00:10:34 00:13:55 22° 78° (ENE) 00:17:15 434.975-435.025
QB50P2 23 Jun 00:10:36 00:13:49 21° 282° (WNW) 00:17:02 145.880/145.840
SPROUT 23 Jun 00:25:58 00:29:58 41° 258° (WSW) 00:33:58 437.525
UKube-1 23 Jun 00:34:16 00:37:59 29° 78° (ENE) 00:41:40 .
SRMSAT 23 Jun 00:39:29 00:45:24 73° 201° (SSW) 00:51:20 437.500
BUGSAT 1 23 Jun 00:41:46 00:45:51 51° 282° (WNW) 00:49:55 437.445
JUGNU 23 Jun 00:53:16 00:56:58 17° 194° (SSW) 01:00:41 437.505
Oscar 19 23 Jun 00:59:28 01:04:31 65° 102° (ESE) 01:09:37 437.125/150
50 SAT 23 Jun 01:11:53 01:14:13 17° 258° (WSW) 01:16:32 437.505
Gurwin Techsat 1B 23 Jun 01:26:13 01:31:31 73° 103° (ESE) 01:36:49 435.225
SO-50 23 Jun 01:37:19 01:41:19 29° 248° (WSW) 01:45:22 436.795
DX 1 23 Jun 01:47:21 01:49:50 15° 257° (WSW) 01:52:17 434.975-435.025
AO-7 23 Jun 02:03:38 02:09:50 23° 107° (ESE) 02:15:58 .
ITUPSAT 1 23 Jun 02:08:52 02:12:56 28° 77° (ENE) 02:17:00 437.325
UKube-1 23 Jun 02:12:28 02:13:43 11° 257° (WSW) 02:14:58 .
BEESAT 23 Jun 02:20:41 02:25:10 41° 78° (ENE) 02:29:39 436.000
MOZHAYETS 4 23 Jun 02:21:07 02:24:44 23° 78° (ENE) 02:28:19
SRMSAT 23 Jun 02:29:44 02:34:44 28° 198° (SSW) 02:39:45 437.500
ITAMSAT 1 23 Jun 03:08:50 03:14:03 89° 285° (WNW) 03:19:18 435.822/435.867
ITUPSAT 1 23 Jun 03:47:46 03:50:29 15° 257° (WSW) 03:53:11 437.325
AO-7 23 Jun 03:54:18 04:02:11 47° 286° (WNW) 04:10:06 .
MOZHAYETS 4 23 Jun 03:58:34 04:01:36 17° 258° (WSW) 04:04:38
DOVE 4 23 Jun 04:09:23 04:10:36 11° 103° (ESE) 04:11:49 437.250
KKS-1 23 Jun 04:17:19 04:21:41 62° 78° (ENE) 04:26:02 437.445
SRMSAT 23 Jun 04:21:42 04:24:33 14° 190° (S) 04:27:25 437.500
CUBESAT XI-V 23 Jun 04:29:30 04:34:06 55° 258° (WSW) 04:38:40 437.345
JUGNU 23 Jun 04:35:51 04:37:08 11° 173° (S) 04:38:25 437.505
LilacSat-2 23 Jun 04:55:51 04:57:26 12° 102° (ESE) 04:59:00 437.200
STARS 23 Jun 04:56:01 05:00:22 71° 78° (ENE) 05:04:42 437.465
XW-2B 23 Jun 05:00:11 05:01:59 13° 101° (ESE) 05:03:48 145.730 - 145.750
Tancredo 1 23 Jun 05:13:22 05:15:37 19° 126° (SE) 05:17:51 437.200
XW-2C 23 Jun 05:14:18 05:17:17 23° 102° (ESE) 05:20:17 145.795 - 145.815
CUTE-I 23 Jun 05:29:19 05:34:14 37° 103° (ESE) 05:39:09 437.470
KAITUO 1B 23 Jun 05:35:55 05:39:19 36° 101° (ESE) 05:42:44 145.475/437.950
DOVE 4 23 Jun 05:42:58 05:47:54 47° 281° (WNW) 05:52:59 437.250
RS-15 23 Jun 05:48:50 05:55:38 17° 66° (ENE) 06:02:12 29.354- 29.394
CUTE 1.7 + AOD 2 23 Jun 06:14:41 06:17:22 17° 102° (ESE) 06:20:03 437.475
NUDT-PHONESAT 23 Jun 06:16:04 06:19:33 43° 281° (WNW) 06:23:02 437.300
XW-2F 23 Jun 06:22:08 06:25:15 26° 281° (W) 06:28:23 145.980 - 146.000
JUGNU 23 Jun 06:22:49 06:27:00 20° 164° (SSE) 06:31:12 437.505
XW-2A 23 Jun 06:23:22 06:24:35 12° 101° (ESE) 06:25:47 145.665 - 145.685
XW-2D 23 Jun 06:24:05 06:27:00 22° 281° (WNW) 06:29:57 145.860 - 145.880
LilacSat-2 23 Jun 06:28:47 06:31:26 18° 281° (WNW) 06:34:06 437.200
ISS 23 Jun 06:30:48 06:34:01 64° 306° (NW) 06:37:13 437.550
XW-2B 23 Jun 06:33:26 06:35:55 17° 281° (W) 06:38:24 145.730 - 145.750
STRAND 1 23 Jun 07:03:29 07:08:36 82° 78° (ENE) 07:13:43 437.568
AAUSAT CUBESAT 2 23 Jun 07:03:30 07:06:14 17° 102° (ESE) 07:08:58 437.432
CUTE-I 23 Jun 07:11:17 07:13:59 14° 283° (WNW) 07:16:42 437.470
AO-85 23 Jun 07:11:26 07:16:02 87° 242° (WSW) 07:21:00 145.980
HO-68 23 Jun 07:14:00 07:21:09 80° 284° (WNW) 07:28:19 435.675
BEESAT 3 23 Jun 07:25:02 07:28:52 59° 68° (ENE) 07:32:38 437.485
CUBEBUG 2 23 Jun 07:28:30 07:33:04 85° 98° (E) 07:37:31 437.445
SEEDS 23 Jun 07:37:22 07:41:22 48° 281° (WNW) 07:45:24 437.485
AO-73 23 Jun 07:38:17 07:41:37 22° 101° (E) 07:44:53 145.935
CUTE 1.7 + AOD 2 23 Jun 07:50:02 07:52:56 18° 281° (W) 07:55:50 437.475
XW-2A 23 Jun 07:55:08 07:57:02 14° 281° (WNW) 07:58:57 145.665 - 145.685
RS-15 23 Jun 07:56:26 08:07:53 73° 250° (WSW) 08:18:51 29.354- 29.394
SRMSAT 23 Jun 08:02:19 08:05:13 14° 169° (S) 08:08:06 437.500
NO-84 23 Jun 08:04:57 08:08:40 45° 239° (WSW) 08:12:07 435.350 FM
Oscar 11 23 Jun 08:08:15 08:12:20 44° 102° (ESE) 08:16:26 .
UWE-3 23 Jun 08:08:49 08:13:05 49° 282° (WNW) 08:17:17 435.000/436.395/437.385
ZACube-1 23 Jun 08:10:28 08:14:48 80° 102° (ESE) 08:19:02 437.345
JUGNU 23 Jun 08:10:39 08:16:19 48° 160° (SSE) 08:22:03 437.505
BEESAT 2 23 Jun 08:16:53 08:20:51 85° 68° (ENE) 08:24:47 435.950
O/OREOS (USA 219) 23 Jun 08:20:16 08:24:39 62° 75° (ENE) 08:29:06 437.305
YUBILEINY 23 Jun 08:30:30 08:38:02 32° 87° (E) 08:45:30 435.215
AAUSAT CUBESAT 2 23 Jun 08:38:44 08:41:25 17° 281° (WNW) 08:44:06 437.432
FO-29 23 Jun 08:55:58 09:00:38 31° 76° (ENE) 09:05:38 435.910
DELFI C3 23 Jun 08:56:17 08:59:56 37° 102° (ESE) 09:03:38 145.870
EO-88 23 Jun 09:05:13 09:08:22 28° 101° (ESE) 09:11:32 145.990 - 145.960
UNISAT 6 23 Jun 09:06:48 09:10:38 29° 78° (ENE) 09:14:31 437.425
PRISM 23 Jun 09:11:30 09:15:14 34° 78° (ENE) 09:18:55 437.425
M-CUBED/EXP-1 PRIME 23 Jun 09:12:21 09:16:08 67° 254° (WSW) 09:19:36 437.505
AO-73 23 Jun 09:15:18 09:17:34 14° 282° (WNW) 09:19:49 145.935
PCSat 23 Jun 09:33:09 09:34:36 11° 110° (ESE) 09:36:02 145.827
SRMSAT 23 Jun 09:49:59 09:55:03 28° 162° (SSE) 10:00:07 437.500
JUGNU 23 Jun 09:59:31 10:05:23 62° 339° (NNW) 10:11:18 437.505
TIGRISAT 23 Jun 10:01:36 10:05:52 49° 259° (WSW) 10:10:12 435.000
YUBILEINY 23 Jun 10:26:55 10:34:24 32° 267° (W) 10:41:55 435.215
POLYITAN 1 23 Jun 10:32:31 10:33:50 11° 78° (ENE) 10:35:10 437.675
QB50P2 23 Jun 10:41:34 10:44:28 18° 78° (ENE) 10:47:22 145.880/145.840
FO-29 23 Jun 10:42:28 10:45:34 16° 259° (W) 10:48:47 435.910
UNISAT 6 23 Jun 10:45:27 10:47:05 12° 258° (WSW) 10:48:44 437.425
EO-79 23 Jun 11:06:07 11:10:00 37° 78° (ENE) 11:13:54 145.935-145.965
AIST 2D 23 Jun 11:06:23 11:09:55 64° 258° (WSW) 11:13:26 435.315
LO-87 23 Jun 11:10:40 11:13:55 31° 281° (W) 11:17:11 145.935 - 145.965
PCSat 23 Jun 11:12:35 11:17:44 46° 289° (WNW) 11:22:54 145.827
DUCHIFAT 1 23 Jun 11:23:23 11:27:27 51° 78° (ENE) 11:31:31 145.980
NANOSAT C BR1 23 Jun 11:30:12 11:34:23 77° 78° (ENE) 11:38:35 145.865
ESTCUBE 1 23 Jun 11:36:40 11:40:47 37° 282° (WNW) 11:44:56 437.505/2401.250
SRMSAT 23 Jun 11:38:24 11:44:25 73° 159° (SSE) 11:50:24 437.500
JUGNU 23 Jun 11:49:52 11:54:38 24° 343° (NNW) 11:59:25 437.505
VELOX 1 23 Jun 11:50:23 11:54:42 50° 102° (ESE) 11:59:01 145.980
POLYITAN 1 23 Jun 12:05:46 12:09:21 27° 258° (WSW) 12:12:56 437.675
SO-50 23 Jun 12:10:09 12:13:57 24° 112° (ESE) 12:17:42 436.795
QB50P2 23 Jun 12:17:13 12:19:59 17° 258° (WSW) 12:22:46 145.880/145.840
DX 1 23 Jun 12:19:33 12:23:22 30° 102° (ESE) 12:27:12 434.975-435.025
Gurwin Techsat 1B 23 Jun 12:27:58 12:30:24 13° 77° (ENE) 12:32:50 435.225
SPROUT 23 Jun 12:33:07 12:36:57 33° 282° (WNW) 12:40:48 437.525
UKube-1 23 Jun 12:42:14 12:46:13 37° 102° (ESE) 12:50:14 .
BUGSAT 1 23 Jun 12:44:51 12:48:42 45° 258° (WSW) 12:52:36 437.445
50 SAT 23 Jun 12:54:11 12:57:19 34° 281° (WNW) 13:00:28 437.505
SRMSAT 23 Jun 13:28:02 13:33:40 41° 340° (NNW) 13:39:16 437.500
Oscar 19 23 Jun 13:33:19 13:38:19 48° 258° (WSW) 13:43:16 437.125/150
JUGNU 23 Jun 13:41:59 13:44:24 12° 351° (N) 13:46:49 437.505
SO-50 23 Jun 13:51:16 13:54:09 16° 292° (WNW) 13:57:01 436.795
DX 1 23 Jun 13:58:00 13:59:16 11° 282° (WNW) 14:00:32 434.975-435.025
Gurwin Techsat 1B 23 Jun 14:05:09 14:10:03 38° 257° (WSW) 14:14:57 435.225
ITAMSAT 1 23 Jun 14:07:01 14:09:52 15° 77° (ENE) 14:12:43 435.822/435.867
AO-7 23 Jun 14:28:39 14:36:09 38° 74° (ENE) 14:43:37 .
ITUPSAT 1 23 Jun 14:30:28 14:35:07 54° 102° (ESE) 14:39:46 437.325
MOZHAYETS 4 23 Jun 14:37:07 14:41:19 36° 102° (ESE) 14:45:29
BEESAT 23 Jun 14:42:11 14:46:56 82° 104° (ESE) 14:51:42 436.000
CUBESAT XI-V 23 Jun 15:13:15 15:15:04 12° 102° (ESE) 15:16:54 437.345
SRMSAT 23 Jun 15:19:18 15:23:15 18° 346° (NNW) 15:27:10 437.500
ITAMSAT 1 23 Jun 15:44:27 15:49:03 33° 257° (WSW) 15:53:39 435.822/435.867
AO-7 23 Jun 16:21:45 16:28:32 29° 253° (WSW) 16:35:22 .
DOVE 4 23 Jun 16:29:01 16:31:19 14° 79° (E) 16:33:35 437.250
KKS-1 23 Jun 16:29:31 16:34:00 87° 280° (W) 16:38:29 437.445
CUBESAT XI-V 23 Jun 16:48:07 16:52:08 31° 282° (WNW) 16:56:12 437.345
LilacSat-2 23 Jun 16:51:01 16:51:46 10° 79° (ENE) 16:52:31 437.200
XW-2B 23 Jun 16:54:36 16:55:38 11° 79° (ENE) 16:56:40 145.730 - 145.750
STARS 23 Jun 17:06:37 17:11:03 80° 282° (WNW) 17:15:29 437.465
XW-2C 23 Jun 17:08:10 17:10:57 19° 79° (ENE) 17:13:44 145.795 - 145.815
SRMSAT 23 Jun 17:12:32 17:13:22 10° 355° (N) 17:14:11 437.500
JUGNU 23 Jun 17:21:29 17:24:43 15° 12° (NNE) 17:27:56 437.505
KAITUO 1B 23 Jun 17:28:17 17:31:35 28° 79° (E) 17:34:51 145.475/437.950
RS-15 23 Jun 17:31:35 17:36:38 14° 113° (ESE) 17:41:43 29.354- 29.394
